SCP
0 0 0 0 0 0 0 0 0 0 1 1 1 2 2 1 1 1 1 1 1 1 1 1 1 1 1 1 1 0 0 0 0 0 0 0 0 0 0 0 0 0 0
0 0 0 0 0 0 0 0 0 0 0 1 1 2 2 1 1 1 1 1 1 1 1 1 1 1 1 1 1 0 0 0 0 0 0 0 0 0 0 0 0 0 0
0 0 0 0 0 0 0 0 0 0 0 1 1 1 1 1 1 1 1 1 1 1 1 1 1 1 0 0 0 0 0 0 0 0 0 0 0 0 0 0 0 0 0
0 0 0 0 0 0 0 0 0 0 0 0 1 1 1 1 1 1 1 0 0 0 0 0 0 0 0 0 0 0 0 0 0 0 0 0 0 0 0 0 0 0 0
0 0 0 0 0 0 0 0 0 0 0 0 0 0 1 1 1 0 0 0 0 0 0 0 0 0 0 0 0 0 0 0 0 0 0 0 0 0 0 0 0 0 0
0 0 0 0 0 0 0 0 0 0 0 0 0 0 0 0 0 0 0 0 0 0 0 0 0 0 0 0 0 0 0 0 0 0 0 0 0 0 0 0 0 0 0
0 0 0 0 0 0 0 0 0 0 0 0 0 0 0 0 0 0 0 0 0 0 0 0 0 0 0 0 0 0 0 0 0 0 0 0 0 0 0 0 0 0 0
0 0 0 0 0 0 0 0 0 0 0 0 0 0 0 0 0 0 0 0 0 0 0 0 0 0 0 0 0 0 0 0 0 0 0 0 0 0 0 0 0 0 0
0 0 0 0 0 0 0 0 0 0 0 0 0 0 0 0 0 0 0 0 0 0 0 0 0 0 0 0 0 0 0 0 0 0 0 0 0 0 0 0 0 0 0
0 0 0 0 0 0 0 0 0 0 0 0 0 0 0 0 0 0 0 0 0 0 0 0 0 0 0 0 0 0 0 0 0 0 0 0 0 0 0 0 0 0 0
0 0 0 0 0 0 0 0 0 0 0 0 0 0 0 0 0 0 0 0 0 0 0 0 0 0 0 0 0 0 0 0 0 0 0 0 0 0 0 0 0 0 0
0 0 0 0 0 0 0 0 0 0 0 0 0 0 0 0 0 0 0 0 0 0 0 0 0 0 0 0 0 0 0 0 0 0 0 0 0 0 0 0 0 0 0
0 0 0 0 0 0 0 0 0 0 0 0 0 0 0 0 0 0 0 0 0 0 0 0 0 0 0 0 0 0 0 0 0 0 0 0 0 0 0 0 0 0 0
0 0 0 0 0 0 0 0 0 0 0 0 0 0 0 0 0 0 0 0 0 0 0 0 0 0 0 0 0 0 0 0 0 0 0 0 0 0 0 0 0 0 0
0 0 0 0 0 0 0 0 0 0 0 0 0 0 0 0 0 0 0 0 0 0 0 0 0 0 0 0 0 0 0 0 0 0 0 0 0 0 0 0 0 0 0
0 0 0 0 0 0 0 0 0 0 0 0 0 0 0 0 0 0 0 0 0 0 0 0 0 0 0 0 0 0 0 0 0 0 0 0 0 0 0 0 0 0 0
0 0 0 0 0 0 0 0 0 0 0 0 0 0 0 0 0 0 0 0 0 0 0 0 0 0 0 0 0 0 0 0 0 0 0 0 0 0 0 0 0 0 0
0 0 0 0 0 0 0 0 0 0 0 0 0 0 0 0 0 0 0 0 0 0 0 0 0 0 0 0 0 0 0 0 0 0 0 0 0 0 0 0 0 0 0
0 0 0 0 0 0 0 0 0 0 0 0 0 0 0 0 0 0 0 0 0 0 0 0 0 0 0 0 0 0 0 0 0 0 0 0 0 0 0 0 0 0 0
0 0 0 0 0 0 0 0 0 0 0 0 0 0 0 0 0 0 0 0 0 0 0 0 0 0 0 0 0 0 0 0 0 0 0 0 0 0 0 0 0 0 0
0 0 0 0 0 0 0 0 0 0 0 0 0 0 0 0 0 0 0 0 0 0 0 0 0 0 0 0 0 0 0 0 0 0 0 0 0 0 0 0 0 0 0
0 0 0 0 0 0 0 0 0 0 0 0 0 0 0 0 0 0 0 0 0 0 0 0 0 0 0 0 0 0 0 0 0 0 0 0 0 0 0 0 0 0 0
0 0 0 0 0 0 0 0 0 0 0 0 0 0 0 0 0 0 0 0 0 0 0 0 0 0 0 0 0 0 0 0 0 0 0 0 0 0 0 0 0 0 0
0 0 0 0 0 0 0 0 0 0 0 0 0 0 0 0 0 0 0 0 0 0 0 0 0 0 0 0 0 0 0 0 0 0 0 0 0 0 0 0 0 0 0
0 0 0 0 0 0 0 0 0 0 0 0 0 0 0 0 0 0 0 0 0 0 0 0 0 0 0 0 0 0 0 0 0 0 0 0 0 0 0 0 0 0 0
0 0 0 0 0 0 0 0 0 0 0 0 0 0 0 0 0 0 0 0 0 0 0 0 0 0 0 0 0 0 0 0 0 0 0 0 0 0 0 0 0 0 0
Wind_Speed
6 6 6 6 6 6 6 6 6 6 6 6 6 5 5 4 3 3 2 2 2 2 2 3 4 4 4 4 4 4 3 3 3 2 2 2 2 2 3 2 4 5 5
5 5 5 5 6 7 8 8 7 7 7 7 6 7 7 7 6 4 4 3 3 2 2 3 3 4 4 4 4 4 3 4 3 3 2 2 2 3 3 3 3 5 5
5 5 6 6 6 7 7 8 8 7 7 7 7 7 7 7 7 6 5 3 3 3 3 3 3 4 4 3 4 4 3 3 3 3 3 2 2 2 2 2 4 4 6
4 5 6 6 6 6 7 7 8 8 7 7 7 8 8 8 8 8 6 4 4 4 3 3 3 3 4 4 4 4 4 3 3 3 3 3 2 2 3 3 4 4 5
4 5 6 6 6 6 6 7 7 8 9 8 7 8 8 7 9 9 7 4 3 4 4 3 3 4 5 4 3 3 4 3 3 3 3 3 3 3 3 3 5 5 5
5 5 5 5 6 6 6 6 6 7 7 7 7 7 8 8 13 13 9 4 3 3 3 3 3 4 4 6 7 6 4 4 4 3 3 3 4 4 4 5 6 6 4
5 5 5 5 5 6 7 7 6 6 6 6 6 6 6 8 14 14 13 5 2 3 3 2 2 4 4 3 5 6 5 4 3 4 3 4 4 5 6 6 5 5 5
5 4 4 5 5 5 5 5 6 5 5 5 5 6 5 9 15 15 15 4 2 3 3 3 3 3 5 4 2 5 6 5 3 2 3 3 3 4 5 6 8 8 7
4 4 5 5 5 5 5 5 4 4 4 4 4 5 6 7 14 15 14 4 2 3 3 4 4 4 6 5 4 6 6 5 9 11 11 10 11 10 8 7 7 8 6
4 5 5 4 4 5 5 4 4 3 4 3 3 4 5 5 11 14 13 4 3 3 3 4 7 6 7 6 4 6 7 5 6 6 7 8 8 8 9 6 6 7 6
4 4 4 4 3 3 4 4 4 4 4 4 3 4 4 6 9 13 12 5 4 3 3 3 4 7 7 5 3 4 6 6 5 5 5 5 5 6 6 5 5 5 5
3 2 2 3 3 3 2 3 3 4 4 4 4 4 4 5 7 10 12 8 6 3 3 3 3 6 6 5 4 5 7 6 4 5 5 5 5 5 5 6 7 6 5
2 1 0 1 1 2 3 4 4 4 4 4 4 4 3 4 6 13 12 10 8 4 3 4 4 5 5 5 6 6 5 4 5 5 5 5 5 5 5 5 6 7 7
3 2 1 0 2 2 2 3 3 4 4 4 5 4 4 4 6 7 6 5 5 4 3 3 5 6 5 4 4 4 4 4 5 5 5 4 4 4 4 4 4 5 6
4 4 3 2 1 1 2 2 2 3 2 2 3 4 4 4 6 9 6 4 4 4 2 2 2 2 3 3 3 3 3 4 5 4 5 4 4 4 3 3 3 4 4
2 1 2 2 2 1 2 2 1 1 3 2 1 2 2 3 6 8 9 9 8 7 3 2 2 3 3 3 3 3 3 3 3 4 4 4 4 4 3 3 3 4 5
3 1 2 1 1 2 2 2 2 2 2 2 2 1 2 4 6 7 8 9 7 5 3 3 3 3 3 3 3 3 3 3 3 4 4 4 4 4 3 3 3 4 4
4 1 1 1 1 2 1 1 1 2 2 3 4 4 3 2 4 6 7 5 3 4 3 3 3 2 2 2 2 2 2 2 3 3 3 3 3 3 3 3 3 4 4
3 2 2 1 2 2 2 2 1 1 2 2 3 3 5 4 4 5 5 1 2 2 2 2 2 2 2 2 2 2 3 2 3 3 3 3 3 3 3 3 4 4 3
2 2 2 1 2 3 3 3 2 2 2 2 3 3 3 3 2 1 0 1 2 2 2 2 2 2 2 2 2 2 2 2 2 3 3 2 2 3 4 5 4 3 2
3 4 6 3 3 4 3 3 3 2 2 2 3 4 4 1 1 2 2 1 1 2 2 2 1 1 1 1 1 1 2 2 2 3 3 2 2 2 2 3 3 3 3
3 3 4 4 4 4 3 2 2 2 3 3 4 4 5 2 2 3 3 3 2 2 2 2 1 1 1 1 1 1 0 2 2 2 3 3 2 2 2 2 2 2 3
3 3 3 4 4 4 3 3 3 3 3 3 4 5 5 4 4 3 4 4 4 3 2 2 1 2 1 0 0 1 1 0 1 2 2 3 3 2 2 2 3 2 2
4 5 4 3 3 3 3 4 4 4 4 4 3 4 6 5 5 5 4 4 5 4 4 4 3 4 5 3 1 0 1 2 3 2 1 2 2 2 2 2 2 3 2
5 5 4 4 4 4 4 4 4 4 4 4 4 4 4 5 5 5 5 5 6 5 6 5 4 4 5 6 5 3 4 4 4 2 2 0 1 2 2 2 2 2 3
6 5 5 4 4 3 3 3 4 4 3 3 3 3 4 4 4 5 5 5 6 5 6 5 7 7 7 6 7 8 10 7 5 2 1 1 2 2 3 2 3 3 3
Wind_Direction
4 4 11 7 5 9 11 5 4 6 10 19 22 28 32 33 35 46 45 61 77 128 148 159 172 165 162 163 159 161 170 167 174 177 167 155 142 155 150 154 143 143 150
4 2 10 16 16 18 13 9 12 15 18 24 25 30 31 27 23 26 34 48 58 72 106 130 135 138 142 147 152 161 162 165 161 161 150 145 152 159 150 155 149 137 129
16 12 12 22 20 21 16 12 15 16 21 26 31 32 30 28 21 18 26 43 60 68 79 99 121 131 137 143 148 147 149 157 147 142 146 139 135 144 130 122 117 113 117
26 20 16 24 21 20 17 15 18 18 22 21 31 33 30 31 21 12 9 31 49 59 71 82 96 119 134 144 146 148 147 144 136 135 140 146 142 145 136 131 119 108 113
33 30 20 26 22 18 22 22 22 21 25 22 29 33 29 28 18 11 2 15 44 57 59 64 86 100 111 122 129 140 146 144 140 145 149 145 148 144 155 146 129 114 101
43 37 27 31 24 19 22 21 23 30 24 21 25 31 34 25 10 13 9 2 31 61 62 54 79 102 110 111 107 110 127 149 160 157 156 159 163 157 145 140 136 133 121
49 44 33 35 31 26 23 18 19 30 26 22 22 24 32 23 13 10 2 351 29 63 64 60 51 68 78 95 115 110 88 90 137 152 156 169 160 162 151 148 147 135 123
46 49 48 41 31 25 24 23 20 19 21 21 21 19 22 25 15 9 357 356 49 69 65 56 47 56 52 49 103 105 81 53 64 113 126 131 123 128 136 139 130 112 102
44 40 50 45 32 21 19 19 20 12 11 21 23 23 24 22 17 12 3 350 47 69 77 72 56 59 42 49 98 112 103 81 71 84 91 93 89 92 108 114 122 125 122
51 41 45 49 41 28 12 9 11 14 7 14 22 30 34 27 22 18 10 3 24 48 57 71 59 50 40 44 105 124 121 118 115 103 92 87 84 85 97 113 129 132 129
63 45 37 34 51 57 13 5 15 6 359 8 22 31 40 40 24 20 17 18 8 34 52 55 48 42 42 37 67 117 129 130 120 108 96 85 77 73 73 76 92 124 126
91 63 52 46 29 40 17 8 16 2 5 13 16 23 29 37 28 14 16 24 21 42 49 48 49 43 50 60 66 98 114 113 104 97 90 83 81 76 73 74 78 80 88
135 116 42 104 104 46 17 17 18 15 10 6 11 15 20 30 18 13 9 21 32 44 53 59 61 59 61 68 67 84 99 102 102 100 96 90 90 91 83 75 68 66 62
180 182 229 308 75 77 55 30 35 24 12 4 7 7 11 29 17 3 353 3 22 40 51 62 60 63 72 78 73 74 80 96 106 107 101 97 96 95 98 101 99 90 73
208 190 197 145 102 66 101 67 57 82 75 26 2 357 9 9 357 352 355 360 1 8 7 55 60 58 63 67 69 76 86 94 101 107 109 110 103 96 96 101 107 102 102
268 177 150 153 155 181 161 139 60 108 148 109 42 13 46 24 349 357 1 4 7 9 41 68 67 70 74 81 86 83 85 98 110 114 116 119 118 114 107 96 100 110 117
278 234 155 150 170 216 204 181 175 185 219 264 268 336 18 352 354 356 357 352 356 17 55 62 62 64 69 73 81 89 91 99 107 111 117 123 125 123 121 118 112 112 118
266 243 158 181 227 255 243 223 177 166 183 203 220 234 249 302 335 342 345 350 27 45 56 65 64 66 75 85 90 98 100 97 102 113 121 123 125 126 129 130 123 124 131
249 213 181 217 224 243 241 231 216 199 194 164 151 190 228 242 284 307 330 25 72 70 65 60 57 62 68 75 85 100 104 103 105 109 114 121 127 129 131 124 119 125 133
249 188 186 233 255 241 224 224 223 212 205 178 155 159 180 200 212 213 148 59 87 96 88 80 63 59 62 67 73 92 108 111 115 113 119 123 127 132 134 134 142 157 175
226 194 191 217 247 254 242 230 222 207 206 182 148 144 153 193 176 150 155 149 129 132 128 112 97 73 61 58 53 97 126 135 134 128 126 127 124 123 132 141 150 152 139
228 208 191 207 227 239 240 241 237 219 210 182 156 161 170 202 228 185 172 170 162 146 134 141 154 132 93 44 18 10 118 140 143 145 148 147 139 139 139 137 141 142 144
232 247 231 220 220 223 226 241 249 235 220 206 178 165 176 204 215 196 183 173 164 167 162 163 181 165 171 220 353 20 8 139 145 137 144 150 155 161 162 167 169 164 177
213 229 232 235 233 225 221 228 234 230 216 210 198 182 182 191 196 191 184 171 169 176 176 182 202 199 185 175 188 275 36 55 53 61 96 152 167 171 165 161 169 192 194
205 218 218 222 234 230 225 233 239 237 221 207 203 200 192 186 188 186 180 174 174 182 187 185 192 204 200 188 188 174 140 121 97 37 8 65 180 173 166 174 183 200 191
198 210 214 212 220 231 236 240 244 243 234 216 205 202 198 195 191 187 179 176 179 186 190 190 195 196 200 203 201 179 168 168 164 156 359 315 228 195 183 196 206 204 204